Location: Dompnac
(44.5644°N, 4.1026°E)
Time: 11:17:30
(UTC+00:00)

OBJECT-B - Pass Details

Date: 19 September 2020
Orbit: 421 x 433 km, 97.0° (Epoch: 09 October)

Event Time Altitude Azimuth Distance (km) Brightness Sun altitude
Exits shadow 19:52:36 39° 351° (N) 648 1.9 -22.6°
Drops below altitude 10° 19:54:47 10° 349° (N) 1,520 4.0 -22.9°
Sets 19:56:48 0° 349° (N) 2,393 5.1 -23.3°
